Regional Weather Roundup
Issued by NWS Albany, NY

Home | Current Version | Previous Version | Graphics & Text | Print | Product List | Glossary On
Versions: 1 2 3 4 5 6 7 8 9 10 11 12 13 14 15 16 17 18 19 20 21 22 23 24 25 26 27 28 29 30 31 32 33 34 35 36 37 38 39 40 41 42 43 44 45 46 47 48 49 50
000
ASUS41 KALY 201110
RWRALY

NEW YORK STATE HOURLY WEATHER ROUNDUP
NATIONAL WEATHER SERVICE ALBANY NY
700 AM EDT MON APR 20 2015

NOTE: "FAIR" INDICATES FEW OR NO CLOUDS BELOW 12,000 FEET WITH NO
SIGNIFICANT WEATHER AND/OR NO OBSTRUCTIONS TO VISIBILITY.

NYZ032-033-038>043-046>054-057>066-NYZ062>081-201200-
EAST


CITY           SKY/WX    TMP DP  RH WIND       PRES   REMARKS
ALBANY         LGT RAIN  43  36  76 SE5       30.02F
GLENS FALLS    LGT RAIN  46  33  60 SE3       30.02F
POUGHKEEPSIE   CLOUDY    47  40  76 E14G23    29.94F
NEWBURGH       CLOUDY    45  43  93 E14       29.96F
MONTGOMERY     CLOUDY    46  40  79 NE8       29.92F
WHITE PLAINS   CLOUDY    45  41  86 E17G24    29.95F
ISLIP          CLOUDY    50  42  74 E22G38    29.96F
NEW YORK CITY  CLOUDY    51  44  77 E22G30    29.93F
CENTRAL PARK   CLOUDY    48  42  80 E7        29.94F
$$

NYZ005>009-017-018-044>046-055-056-201200-
CENTRAL


CITY           SKY/WX    TMP DP  RH WIND       PRES   REMARKS
FULTON         LGT RAIN  44  37  76 SE15G30   29.69F
SYRACUSE       DRIZZLE   46  33  60 E26G40    29.73F
ROME           LGT RAIN  42  36  79 E20G32    29.87F
ELMIRA         RAIN      46  42  86 S9        29.72R FOG
BINGHAMTON     LGT RAIN  42  40  92 SE24G39   29.71F
MONTICELLO     CLOUDY    39  37  93 E21G31    29.87F WCI  29
$$

NYZ026>034-041>043-201200-
NORTH


CITY           SKY/WX    TMP DP  RH WIND       PRES   REMARKS
WATERTOWN      LGT RAIN  45  37  73 E16G35    29.75F
FORT DRUM      NOT AVBL
MASSENA        CLOUDY    43  31  62 E7        29.90F
SARANAC LAKE   LGT RAIN  42  33  70 S12G23    29.90F
PLATTSBURGH    CLOUDY    47  32  56 S17       30.00F
$$

NYZ001>004-010>016-019>021-201200-
WEST


CITY           SKY/WX    TMP DP  RH WIND       PRES   REMARKS
NIAGARA FALLS  CLOUDY    50  44  80 SE12      29.48S
BUFFALO        CLOUDY    52  42  69 S15G28    29.50R
DUNKIRK        CLOUDY    54  45  71 S14G35    29.47R
JAMESTOWN      CLOUDY    46  41  81 SE15G23   29.53R
WELLSVILLE     LGT RAIN  44  41  89 SE22G30   29.63R
ROCHESTER      CLOUDY    48  36  63 SE23G32   29.60F
PENN YAN       LGT RAIN  44  39  82 S3        29.70R
$$

             KEY
       WCI = WIND CHILL INDEX
       VSB = VISIBILITY
       HX  = HEAT INDEX
$$


USA.gov is the U.S. government's official web portal to all federal, state and local government web resources and services.